logo tempoitalia

Diretta Meteo Murcia-San Javier, Spagnavenerdì 19 luglio ore 08:00

Mappa
Sereno 23 °C Sereno 24 Ore: T.min 22 T.max 30
Ponente Nord Km/h 3.7 Punto di rugiada: 18 °C Umidità: 73% Visibilità: 10 Km
Il sole sorge alle: 06:55 Il sole tramonta alle: 21:23
19 Luglio 2024 08:00 tempo osservato: Sereno Sereno 23 73 1017 vento: Nord N 3.7
19 Luglio 2024 07:30 tempo osservato: Sereno Sereno 23 73 1017 vento: Nord N 3.7
19 Luglio 2024 07:00 tempo osservato: Sereno Sereno 22 83 1016 vento: Nord N 5.5
19 Luglio 2024 06:30 tempo osservato: Sereno Sereno 23 83 1017 vento: Nord NO 7.4
19 Luglio 2024 06:00 tempo osservato: Sereno Sereno 23 83 1017 vento: Nord N 5.5
19 Luglio 2024 05:30 tempo osservato: Sereno Sereno 23 83 1017 vento: Nord O/NO 7.4
19 Luglio 2024 05:00 tempo osservato: Sereno Sereno 23 83 1017 vento: Nord O 7.4
19 Luglio 2024 04:30 tempo osservato: Sereno Sereno 24 78 1017 vento: Nord N 1.8
19 Luglio 2024 04:00 tempo osservato: Sereno Sereno 24 78 1017 vento: Nord N 0
19 Luglio 2024 03:30 tempo osservato: Sereno Sereno 24 78 1017 vento: Nord N 1.8
19 Luglio 2024 03:00 tempo osservato: Sereno Sereno 24 83 1017 vento: Nord N 5.5
19 Luglio 2024 02:30 tempo osservato: Sereno Sereno 25 78 1017 vento: Nord N/NO 7.4
19 Luglio 2024 02:00 tempo osservato: Sereno Sereno 25 78 1018 vento: Nord NO 9.3
19 Luglio 2024 01:30 tempo osservato: Sereno Sereno 26 73 1018 vento: Nord N 5.5
19 Luglio 2024 01:00 tempo osservato: Sereno Sereno 25 78 1018 vento: Nord N 5.5
19 Luglio 2024 00:30 tempo osservato: Sereno Sereno 27 69 1018 vento: Nord N 3.7
19 Luglio 2024 00:00 tempo osservato: Sereno Sereno 27 69 1019 vento: Nord N 5.5
18 Luglio 2024 23:30 tempo osservato: Sereno Sereno 26 78 1019 vento: Nord N 5.5
18 Luglio 2024 23:00 tempo osservato: Sereno Sereno 26 73 1018 vento: Nord N 0
18 Luglio 2024 22:30 tempo osservato: Sereno Sereno 27 74 1018 vento: Nord N 3.7
18 Luglio 2024 22:00 tempo osservato: Sereno Sereno 26 78 1017 vento: Nord N 5.5
18 Luglio 2024 21:30 tempo osservato: Sereno Sereno 27 74 1017 vento: Nord NE 7.4
18 Luglio 2024 21:00 tempo osservato: Sereno Sereno 27 78 1017 vento: Nord NE 7.4
18 Luglio 2024 20:30 tempo osservato: Sereno Sereno 27 78 1016 vento: Nord E/NE 9.3
18 Luglio 2024 20:00 tempo osservato: Sereno Sereno 28 74 1016 vento: Nord E/NE 11.1
18 Luglio 2024 19:30 tempo osservato: Sereno Sereno 28 74 1016 vento: Nord NE 11.1
18 Luglio 2024 19:00 tempo osservato: Sereno Sereno 28 74 1016 vento: Nord NE 13
18 Luglio 2024 18:30 tempo osservato: Sereno Sereno 29 70 1016 vento: Nord E/NE 11.1
18 Luglio 2024 18:00 tempo osservato: Sereno Sereno 29 70 1017 vento: Nord E 9.3
18 Luglio 2024 17:30 tempo osservato: Sereno Sereno 30 66 1017 vento: Nord E/NE 11.1
18 Luglio 2024 17:00 tempo osservato: Sereno Sereno 29 66 1017 vento: Nord E 13
18 Luglio 2024 16:30 tempo osservato: Sereno Sereno 29 66 1017 vento: Nord E/NE 13
18 Luglio 2024 16:00 tempo osservato: Sereno Sereno 30 66 1017 vento: Nord E/NE 14.8
18 Luglio 2024 15:30 tempo osservato: Sereno Sereno 30 66 1018 vento: Nord E/NE 14.8
18 Luglio 2024 15:00 tempo osservato: Sereno Sereno 29 70 1018 vento: Nord E/NE 16.7
18 Luglio 2024 14:30 tempo osservato: Sereno Sereno 30 66 1018 vento: Nord E/NE 14.8
18 Luglio 2024 14:00 tempo osservato: Sereno Sereno 29 70 1018 vento: Nord E/NE 13
18 Luglio 2024 13:30 tempo osservato: Sereno Sereno 30 62 1018 vento: Nord NE 14.8
18 Luglio 2024 13:00 tempo osservato: Sereno Sereno 30 62 1018 vento: Nord NE 14.8
18 Luglio 2024 12:30 tempo osservato: Sereno Sereno 29 66 1018 vento: Nord E/NE 14.8
18 Luglio 2024 12:00 tempo osservato: Poco Nuvoloso Poco Nuvoloso 28 69 1018 vento: Nord NE 14.8
18 Luglio 2024 11:30 tempo osservato: Poco Nuvoloso Poco Nuvoloso 28 69 1018 vento: Nord NE 14.8
18 Luglio 2024 11:00 tempo osservato: Poco Nuvoloso Poco Nuvoloso 28 74 1018 vento: Nord E/NE 11.1
18 Luglio 2024 10:30 tempo osservato: Sereno Sereno 28 74 1018 vento: Nord E/NE 11.1
18 Luglio 2024 10:00 tempo osservato: Sereno Sereno 28 69 1019 vento: Nord E/NE 7.4
18 Luglio 2024 09:30 tempo osservato: Sereno Sereno 27 74 1018 vento: Nord N/NE 9.3
18 Luglio 2024 09:00 tempo osservato: Sereno Sereno 26 73 1018 vento: Nord N 9.3